SCP
0 1 1 1 1 1 0 0 1 1 1 1 1 1 1 1 1 1 1 1 1 1 2 2 1 1 1 1 1 1 1 1 1 1 0 0 0 1 1 0 0 0 0
0 0 1 1 0 0 0 0 0 0 1 1 1 1 1 1 1 1 1 1 1 1 1 1 1 1 1 1 1 1 1 1 1 1 0 0 0 1 1 1 0 0 0
0 0 0 0 0 0 0 0 0 0 0 1 1 1 1 1 1 1 1 1 1 1 1 1 1 1 1 1 1 1 1 1 1 1 0 0 0 1 1 1 1 0 0
0 0 0 0 0 0 0 0 0 0 0 0 1 1 1 1 0 0 1 1 1 1 1 1 1 1 1 1 1 1 1 1 1 1 1 1 0 0 1 1 1 0 0
0 0 0 0 0 0 0 0 0 0 0 0 0 1 1 0 0 0 0 0 1 1 1 1 1 1 1 1 1 1 1 1 1 1 1 1 0 0 0 0 0 0 0
0 0 0 0 0 0 0 0 0 0 0 0 0 0 0 0 0 0 0 0 0 0 1 1 1 1 1 1 1 1 1 1 1 1 1 1 0 0 0 0 0 0 0
0 0 0 0 0 0 0 0 0 0 0 0 0 0 0 0 0 0 0 0 0 0 0 1 1 1 1 1 1 1 1 1 1 1 1 1 0 0 0 0 0 0 0
0 0 0 0 0 0 0 0 0 0 0 0 0 0 0 0 0 0 0 0 0 0 0 0 1 1 1 1 1 1 1 1 1 1 1 0 0 0 0 0 0 0 0
0 0 0 0 0 0 0 0 0 0 0 0 0 0 0 0 0 0 0 0 0 0 0 0 0 0 0 0 1 1 1 1 1 1 1 0 0 0 0 0 0 0 0
0 0 0 0 0 0 0 0 0 0 0 0 0 0 0 0 0 0 0 0 0 0 0 0 0 0 0 0 0 0 1 1 1 1 1 0 0 0 0 0 0 0 0
0 0 0 0 0 0 0 0 0 0 0 0 0 0 0 0 0 0 0 0 0 0 0 0 0 0 0 0 0 0 0 1 1 1 1 0 0 0 0 0 0 0 0
0 0 0 0 0 0 0 0 0 0 0 0 0 0 0 0 0 0 0 0 0 0 0 0 0 0 0 0 0 0 0 0 0 1 0 0 0 0 0 0 0 0 0
0 0 0 0 0 0 0 0 0 0 0 0 0 0 0 0 0 0 0 0 0 0 0 0 0 0 0 0 0 0 0 0 0 0 0 0 0 0 0 0 0 0 0
0 0 0 0 0 0 0 0 0 0 0 0 0 0 0 0 0 0 0 0 0 0 0 0 0 0 0 0 0 0 0 0 0 0 0 0 0 0 0 0 0 0 0
0 0 0 0 0 0 0 0 0 0 0 0 0 0 0 0 0 0 0 0 0 0 0 0 0 0 0 0 0 0 0 0 0 0 0 0 0 0 0 0 0 0 0
0 0 0 0 0 0 0 0 0 0 0 0 0 0 0 0 0 0 0 0 0 0 0 0 0 0 0 0 0 0 0 0 0 0 0 0 0 0 0 0 0 0 0
0 0 0 0 0 0 0 0 0 0 0 0 0 0 0 0 0 0 0 0 0 0 0 0 0 0 0 0 0 0 0 0 0 0 0 0 0 0 0 0 0 0 0
0 0 0 0 0 0 0 0 0 0 0 0 0 0 0 0 0 0 0 0 0 0 0 0 0 0 0 0 0 0 0 0 0 0 0 0 0 0 0 0 0 0 0
0 0 0 0 0 0 0 0 0 0 0 0 0 0 0 0 0 0 0 0 0 0 0 0 0 0 0 0 0 0 0 0 0 0 0 0 0 0 0 0 0 0 0
0 0 0 0 0 0 0 0 0 0 0 0 0 0 0 0 0 0 0 0 0 0 0 0 0 0 0 0 0 0 0 0 0 0 0 0 0 0 0 0 0 0 0
0 0 0 0 0 0 0 0 0 0 0 0 0 0 0 0 0 0 0 0 0 0 0 0 0 0 0 0 0 0 0 0 0 0 0 0 0 0 0 0 0 0 0
0 0 0 0 0 0 0 0 0 0 0 0 0 0 0 0 0 0 0 0 0 0 0 0 0 0 0 0 0 0 0 0 0 0 0 0 0 0 0 0 0 0 0
0 0 0 0 0 0 0 0 0 0 0 0 0 0 0 0 0 0 0 0 0 0 0 0 0 0 0 0 0 0 0 0 0 0 0 0 0 0 0 0 0 0 0
0 0 0 0 0 0 0 0 0 0 0 0 0 0 0 0 0 0 0 0 0 0 0 0 0 0 0 0 0 0 0 0 0 0 0 0 0 0 0 0 0 0 0
0 0 0 0 0 0 0 0 0 0 0 0 0 0 0 0 0 0 0 0 0 0 0 0 0 0 0 0 0 0 0 0 0 0 0 0 0 0 0 0 0 0 0
0 0 0 0 0 0 0 0 0 0 0 0 0 0 0 0 0 0 0 0 0 0 0 0 0 0 0 0 0 0 0 0 0 0 0 0 0 0 0 0 0 0 0
Wind_Speed
3 4 4 3 3 2 1 1 1 1 1 1 0 0 1 1 1 0 1 1 1 2 1 1 1 1 1 2 2 1 2 1 1 0 1 2 2 2 2 2 2 2 2
3 4 4 3 2 2 1 1 1 1 0 0 0 0 1 1 1 1 0 1 1 1 1 1 1 1 1 2 2 1 1 1 1 2 1 1 2 2 2 1 2 2 2
3 3 3 3 2 2 2 1 1 0 0 0 1 1 1 1 1 1 1 1 1 1 1 2 1 1 1 2 2 2 2 2 2 2 2 2 2 1 1 2 2 2 1
3 3 3 3 3 3 3 2 1 1 1 1 0 1 1 1 1 1 1 2 2 1 1 2 2 2 2 2 2 2 2 2 2 2 2 2 1 1 1 2 1 1 2
3 3 3 3 3 3 3 2 2 2 1 1 1 1 2 2 1 1 2 2 2 1 1 2 2 2 2 2 2 2 3 3 3 2 2 2 1 1 2 3 2 2 2
3 3 3 3 2 2 2 2 2 3 2 2 2 3 3 2 2 2 2 2 1 1 1 2 2 2 2 2 2 2 3 3 3 3 2 2 2 2 2 2 2 2 2
1 2 2 2 2 3 3 3 3 3 3 3 3 4 4 4 4 3 3 2 2 2 2 2 2 2 2 2 2 3 3 3 3 3 2 2 2 1 1 1 2 2 2
1 1 2 3 3 3 4 4 4 4 3 3 4 4 4 3 3 3 3 3 2 2 2 2 2 2 2 2 2 2 2 2 3 3 3 2 2 1 2 2 1 2 2
0 1 2 3 4 4 4 4 4 4 4 4 4 4 4 4 4 3 3 2 2 2 3 3 3 3 2 2 2 2 2 2 2 2 3 2 2 2 1 1 2 3 3
1 1 2 2 3 4 4 4 5 5 4 4 4 3 4 4 4 3 4 3 3 3 3 3 3 3 2 2 2 2 2 2 2 2 2 2 2 2 2 2 2 2 3
1 2 2 2 3 3 4 4 4 4 4 4 4 4 4 4 4 4 4 4 3 3 4 4 3 3 3 3 2 2 3 3 2 2 2 3 2 2 2 2 2 2 2
1 2 2 2 2 3 3 4 4 4 4 4 4 4 4 4 4 4 4 4 4 4 4 4 3 3 3 3 3 3 3 3 3 3 3 3 2 2 2 1 2 1 2
2 2 2 2 3 3 3 4 4 5 4 4 4 4 4 4 5 5 4 4 4 4 4 3 3 3 3 3 3 3 4 4 4 4 4 3 3 3 2 1 1 1 1
2 2 3 3 3 3 4 4 4 4 5 5 5 5 5 5 5 4 4 4 4 4 4 4 4 3 3 3 3 3 3 3 3 3 3 4 4 3 3 2 2 1 1
4 3 4 4 4 3 4 4 4 4 5 5 6 6 5 5 5 4 4 4 4 4 4 4 4 3 3 3 4 3 3 3 3 2 3 3 4 4 3 2 2 2 1
4 5 5 4 4 4 4 4 4 4 4 5 6 5 5 5 5 5 4 4 4 4 4 4 4 4 3 5 6 4 3 3 3 3 3 3 3 4 4 3 3 3 3
5 5 5 5 5 5 4 5 5 4 4 5 5 5 5 5 5 5 5 5 5 5 5 5 5 4 5 7 7 6 4 3 3 3 3 2 2 3 2 2 2 2 3
6 6 6 6 5 4 4 4 4 4 4 5 5 5 5 5 5 5 6 5 5 5 5 5 5 4 6 9 8 7 4 3 3 3 4 4 3 3 3 3 2 1 1
6 6 6 6 5 5 4 4 4 4 4 5 5 5 5 5 5 6 6 5 5 5 5 5 5 5 6 9 9 7 3 3 4 3 4 4 4 5 5 3 2 1 1
6 6 6 6 6 5 4 4 5 5 6 6 6 5 5 5 6 6 6 5 5 5 5 5 5 5 5 8 9 8 3 4 3 3 4 5 5 6 6 4 3 3 2
7 7 6 6 6 5 4 5 5 6 6 5 5 5 5 6 6 5 4 4 4 4 4 4 4 5 6 8 10 9 4 4 4 3 3 3 7 6 6 4 3 4 2
7 7 6 6 6 5 5 6 6 6 5 4 5 5 5 5 4 4 4 4 4 4 4 4 4 3 4 6 8 10 9 6 4 3 3 3 6 6 5 4 4 4 2
7 6 6 7 6 5 5 7 7 5 4 4 5 5 5 5 5 5 5 4 5 5 4 4 5 4 3 5 10 10 10 9 5 3 5 6 6 5 3 4 4 2 1
7 6 6 7 7 6 6 6 6 5 4 5 6 5 5 5 5 5 5 5 5 5 5 5 5 4 4 4 4 5 5 7 5 4 5 6 5 4 4 3 2 1 2
6 6 6 7 8 7 7 6 5 5 5 6 5 5 5 5 5 5 5 6 6 7 7 6 5 5 5 7 9 6 5 4 4 4 3 3 3 3 2 2 2 1 1
7 6 7 7 7 7 7 6 6 5 5 5 5 4 4 4 4 4 4 6 7 8 9 8 6 5 7 9 11 10 9 9 9 6 4 4 4 4 3 3 2 2 2
Wind_Direction
149 132 128 130 125 116 103 89 76 58 56 16 307 290 284 293 312 326 344 314 297 296 274 275 273 269 244 250 238 213 221 226 170 102 306 286 259 232 226 211 191 185 181
152 140 137 138 146 148 137 138 113 65 57 324 305 257 276 266 249 272 316 299 296 288 282 252 255 252 243 252 252 239 208 216 176 153 163 275 288 275 236 202 191 200 188
166 157 157 159 168 170 166 179 170 182 160 30 1 341 318 306 304 309 304 298 300 301 303 280 256 241 216 226 240 238 219 218 218 182 173 190 227 284 271 232 206 188 192
171 167 167 171 174 175 160 172 199 197 197 174 200 249 252 256 261 251 250 268 258 256 259 274 258 244 230 222 224 227 223 208 213 231 232 213 174 185 276 295 257 218 219
177 174 167 174 168 157 158 180 208 209 194 201 219 232 263 268 278 279 272 275 265 243 240 258 250 244 238 230 224 224 224 214 210 208 214 230 237 223 203 250 258 267 249
164 157 149 146 156 153 157 184 210 219 201 207 222 223 238 255 271 270 264 266 270 263 250 260 254 248 239 233 225 222 224 222 221 218 209 197 194 204 210 235 241 250 257
147 154 156 163 176 180 184 197 211 222 211 211 223 227 228 232 243 255 254 261 268 265 256 251 251 253 244 236 227 225 221 218 220 218 220 219 216 201 214 225 247 261 272
111 172 196 186 188 193 193 201 215 226 216 217 228 230 229 227 232 239 245 246 246 251 259 255 247 248 250 246 231 227 225 221 224 227 215 217 220 208 208 203 204 258 271
117 226 238 209 196 200 203 205 214 222 220 223 229 232 234 232 233 233 238 243 246 253 255 252 248 245 241 233 222 218 228 212 213 215 212 214 216 211 210 200 197 198 236
294 265 242 232 214 204 205 205 211 218 219 217 222 234 233 231 233 228 234 238 242 246 253 251 243 245 249 238 215 216 230 212 214 203 201 216 210 205 204 204 219 210 214
286 280 267 249 232 214 206 210 212 217 216 213 219 229 236 233 227 227 229 231 238 239 240 242 236 230 231 230 215 210 214 209 202 199 201 216 204 204 206 201 211 221 216
316 300 288 275 259 237 222 215 214 219 221 215 215 221 231 235 229 229 228 226 234 238 239 239 235 229 223 219 213 209 208 203 198 200 199 210 204 201 202 198 207 219 228
313 305 297 282 271 256 240 226 219 219 218 213 217 223 227 234 237 232 226 224 227 234 236 234 230 229 224 224 227 212 206 206 202 197 195 198 192 197 193 184 197 221 250
297 293 283 271 266 262 252 240 232 221 215 210 215 224 226 230 236 232 225 221 221 226 230 227 223 221 220 222 222 214 210 207 203 195 192 192 189 190 183 186 200 204 221
302 296 288 279 270 268 263 251 243 231 217 214 218 225 226 225 228 226 223 221 221 224 224 226 224 218 214 215 208 205 202 197 193 191 188 184 182 183 184 188 192 192 202
306 301 293 286 277 270 265 259 250 239 222 220 223 223 222 221 224 222 220 219 219 219 221 223 219 216 216 215 213 203 199 191 187 194 191 182 185 189 200 204 205 203 202
309 305 300 290 279 270 264 260 249 242 231 228 229 225 221 223 224 221 219 219 220 218 220 218 206 209 209 207 209 206 191 184 188 191 182 183 180 177 172 182 206 237 245
308 303 298 292 283 274 268 264 256 242 235 234 232 227 223 224 223 220 221 221 219 218 218 216 207 207 211 206 207 205 193 183 192 196 190 182 183 183 173 167 174 205 243
295 293 292 290 285 278 266 263 261 247 239 239 236 231 222 221 221 224 225 221 219 221 217 209 203 205 212 205 202 195 178 189 202 200 191 186 185 189 183 168 178 205 244
296 295 297 296 289 278 266 263 260 251 246 241 234 229 221 219 224 226 224 219 215 216 211 209 201 199 203 202 200 195 186 195 200 196 191 197 196 190 189 185 186 205 221
290 289 290 290 285 281 271 260 257 256 252 243 233 227 221 220 225 224 219 215 212 204 203 205 205 202 201 201 201 198 193 197 195 195 193 192 194 195 199 201 198 209 205
287 285 285 286 284 280 271 265 260 257 249 240 237 231 223 221 218 214 217 212 205 202 202 202 210 210 204 201 204 203 204 200 195 199 193 182 181 190 202 205 205 207 210
283 281 279 283 283 275 268 269 268 262 250 240 239 234 225 217 209 209 212 212 207 205 205 203 211 211 200 200 204 205 206 206 204 197 192 182 182 187 193 203 206 200 184
281 278 277 280 282 277 270 265 269 263 248 246 243 232 223 219 211 208 205 208 209 207 206 207 209 205 197 196 192 194 198 202 205 199 188 184 186 188 183 186 195 185 186
279 273 271 275 278 278 274 269 265 257 251 248 243 234 222 215 214 211 211 213 215 208 207 209 201 197 205 205 193 186 187 180 182 166 162 169 171 178 181 181 183 177 181
278 276 272 272 276 275 273 269 261 249 242 246 241 231 221 216 213 213 225 223 220 217 214 212 205 210 205 191 193 193 191 186 181 172 175 186 186 188 189 189 191 193 198